カタログに戻る

STARLINK-32390

運用中通信VLEO
NORAD 61630·PAYLOAD·🇺🇸 United States

打ち上げ Oct 23, 2024 から Cape Canaveral Space Force Station

Loading…

次のパス (今後24時間)

TLE

最新Source: CelesTrak SupGP

元期: Sep 15, 2026, 03:29 UTC

1 61630C 24191K   26258.14562500  .00031733  00000+0  11495-2 0  2585
2 61630  43.0003 164.7738 0001301 275.9469 267.1961 15.27560293    14

AllMySatでSTARLINK-32390をリアルタイム追跡

Download on the App Store